[[{"header":{"parameterUnit":"m.s-1","parameterCategory":1,"la1":30.2991,"la2":30.254,"lo1":-89.0895,"lo2":-89.0444,"dy":0.0017,"dx":0.0017,"nx":28,"ny":28,"refTime":"2023-09-25T09:00:00:Z","depth":0,"parameterNumber":2,"parameterNumberName":"U-component_of_WINDS"},"data":[0,0,0,0,0,0,0,0,0,0,0,0,0,0,0,0,0,0,0,0,0,0,0,0,0,0,0,0,0,0,0,0,0,0,0,0,0,0,0,0,0,0,0,0,0,0,0,0,0,0,0,0,0,0,0,0,0,0,1.927,1.927,0,1.9265,1.9265,1.9265,1.9234,1.9233,1.9232,1.9231,1.9225,1.9225,1.9226,0,0,0,0,0,0,0,0,0,0,0,0,0,1.9248,1.9248,1.927,1.927,1.927,1.9265,1.9265,1.9265,1.9234,1.9233,1.9232,1.9231,1.9224,1.9225,1.9226,0,0,0,0,0,0,0,0,0,0,0,0,0,1.9252,1.9248,1.927,1.9254,1.9252,1.9265,1.9265,1.9265,1.9234,1.9233,1.9232,1.9231,1.9224,1.9225,1.9226,1.9254,0,0,1.9228,1.9229,0,0,0,0,0,0,0,0,1.9251,1.9252,1.9256,1.9255,1.9253,1.9249,1.9255,1.9261,1.9234,1.9241,1.9231,1.923,1.9234,1.9234,1.9235,1.9253,1.9253,1.9228,1.9229,1.9229,1.9229,0,0,0,0,0,0,0,1.9251,1.9252,1.9268,1.9256,1.9254,1.9245,1.9245,1.9256,1.9244,1.924,1.9238,1.9238,1.9232,1.9234,1.9235,1.9253,1.9228,1.9229,1.923,1.923,1.9289,1.9291,0,0,0,0,0,0,1.9254,1.9252,1.9268,1.9268,1.925,1.9247,1.9246,1.9251,1.9243,1.9241,1.9239,1.9236,1.9234,1.9234,1.9234,1.9263,1.9229,1.923,1.923,1.9288,1.929,1.9291,0,0,0,0,0,0,1.9253,1.9255,1.9268,1.926,1.9261,1.9248,1.9255,1.9252,1.9254,1.9242,1.924,1.9243,1.9233,1.9233,1.9248,1.9263,1.923,1.9231,1.9287,1.9289,1.929,1.9324,0,0,0,0,0,0,1.9253,1.9255,1.9267,1.926,1.9261,1.9284,1.9256,1.9253,1.9255,1.9252,1.9246,1.9244,1.9232,1.9247,1.9249,1.9263,1.9232,1.9286,1.9288,1.929,1.9321,1.9326,1.9331,0,0,0,0,0,1.9252,1.9277,1.9268,1.927,1.9276,1.9285,1.9285,1.9272,1.9257,1.9267,1.9259,1.9244,1.9261,1.9249,1.9251,1.9266,1.9285,1.9287,1.929,1.9319,1.9325,1.933,0,0,0,0,0,0,1.9287,1.9276,1.9266,1.929,1.9288,1.928,1.9293,1.9279,1.9282,1.9279,1.9261,1.926,1.9277,1.9273,1.926,1.929,1.927,1.9273,1.9292,1.9297,1.9302,1.9302,1.9232,0,0,0,0,0,1.9297,1.9306,1.9296,1.9318,1.9318,1.9306,1.9309,1.9298,1.9296,1.9295,1.9289,1.9286,1.9291,1.9294,1.9298,1.9321,1.9317,1.9331,1.9336,1.934,1.9342,1.935,1.9355,1.9299,1.9299,1.9299,0,0,1.9319,1.9314,1.9321,1.9325,1.9323,1.9331,1.9305,1.9316,1.9321,1.9297,1.931,1.9305,1.9301,1.9319,1.9326,1.9316,1.9357,1.9343,1.9346,1.9346,1.9353,1.9358,1.9363,1.9301,1.93,1.93,0,0,1.9361,1.936,1.9377,1.9374,1.9371,1.9362,1.9366,1.9358,1.9354,1.9367,1.9347,1.9353,1.9362,1.9359,1.9358,1.9397,1.9381,1.9398,1.9422,1.943,1.9435,1.9438,1.9449,1.9453,1.9401,1.9401,1.9401,0,1.9388,1.9401,1.9387,1.9397,1.9398,1.9376,1.9391,1.9389,1.9387,1.9388,1.9376,1.9385,1.9381,1.9396,1.9405,1.9406,1.9408,1.9398,1.9435,1.9439,1.9442,1.9452,1.9457,1.9403,1.9403,1.9403,1.9402,0,1.9432,1.9441,1.9455,1.9452,1.9455,1.9468,1.9453,1.9457,1.9446,1.9437,1.9449,1.9443,1.9443,1.9447,1.9436,1.9459,1.9452,1.9439,1.9418,1.945,1.9459,1.9463,1.9406,1.9405,1.9404,1.9404,0,0,1.9498,1.9485,1.949,1.9487,1.9481,1.9486,1.9497,1.9497,1.9499,1.9499,1.9505,1.9512,1.9498,1.9497,1.9486,1.9493,1.952,1.9478,1.9477,1.9483,1.9541,1.955,1.9555,1.951,1.9511,1.9511,1.954,0,1.9536,1.9554,1.954,1.956,1.9565,1.9543,1.9552,1.9548,1.954,1.9542,1.9533,1.9537,1.952,1.9519,1.9525,1.9515,1.9531,1.9513,1.9513,1.9514,1.9513,1.956,1.957,1.9598,1.9544,1.9545,1.9545,0,1.9584,1.9583,1.9604,1.9592,1.9594,1.9603,1.96,1.9604,1.9597,1.959,1.9589,1.9574,1.9581,1.9562,1.957,1.9559,1.9558,1.9553,1.9553,1.9551,1.953,1.9557,1.9607,1.961,1.9551,1.955,1.955,0,1.9625,1.963,1.9642,1.964,1.9629,1.9634,1.9629,1.9622,1.9622,1.9619,1.9619,1.9617,1.9616,1.9614,1.9599,1.9587,1.9608,1.9588,1.96,1.9601,1.9605,1.9604,1.9653,1.9608,1.9608,1.9608,1.9608,0,1.9668,1.9681,1.966,1.9667,1.9679,1.9662,1.9674,1.9667,1.966,1.9663,1.9645,1.9648,1.9629,1.963,1.9618,1.9624,1.9625,1.9618,1.9614,1.9618,1.9619,1.9616,1.9613,1.9609,1.9609,1.9609,1.9608,0,1.9716,1.9703,1.9714,1.9701,1.9698,1.9707,1.9695,1.97,1.969,1.9695,1.9695,1.9679,1.9679,1.9663,1.9661,1.9652,1.9663,1.9657,1.9665,1.9662,1.9674,1.9672,1.9721,1.9726,1.968,1.9681,1.9681,0,1.9744,1.9752,1.974,1.9741,1.9737,1.9739,1.9739,1.9721,1.9721,1.9713,1.9718,1.9716,1.9714,1.9714,1.9702,1.9698,1.969,1.9708,1.969,1.9693,1.9687,1.9686,1.9686,1.9711,1.9712,1.9712,1.9712,0,1.9793,1.9785,1.9785,1.9782,1.9782,1.9779,1.9774,1.9776,1.9757,1.9757,1.9756,1.9755,1.975,1.9748,1.9742,1.9735,1.972,1.9718,1.972,1.9724,1.9727,1.9723,1.9673,1.9717,1.9716,1.9716,1.9716,1.9716,1.9829,1.9834,1.9826,1.9825,1.982,1.9816,1.9819,1.9808,1.9808,1.9803,1.9793,1.9793,1.9783,1.9773,1.9768,1.9767,1.9758,1.9762,1.9762,1.9763,1.9764,1.9729,1.9766,1.9766,1.9766,1.9765,1.9765,0,1.9874,1.9867,1.9867,1.9861,1.986,1.9846,1.984,1.9839,1.984,1.9833,1.983,1.9828,1.9825,1.9811,1.9806,1.9807,1.98,1.9806,1.9805,1.9803,1.9774,1.9771,1.9812,1.9812,1.9812,1.9812,1.9812,1.9812,1.9898,1.9905,1.9896,1.9899,1.9892,1.9892,1.9889,1.9884,1.9877,1.9876,1.9873,1.9864,1.9853,1.9847,1.9842,1.9838,1.9836,1.9845,1.9838,1.981,1.9806,1.9801,1.9799,1.9845,1.9845,1.9867,1.9867,1.9867]},{"header":{"parameterUnit":"m.s-1","parameterCategory":1,"la1":30.2991,"la2":30.254,"lo1":-89.0895,"lo2":-89.0444,"dy":0.0017,"dx":0.0017,"nx":28,"ny":28,"refTime":"2023-09-25T09:00:00:Z","depth":0,"parameterNumber":3,"parameterNumberName":"V-component_of_WINDS"},"data":[0,0,0,0,0,0,0,0,0,0,0,0,0,0,0,0,0,0,0,0,0,0,0,0,0,0,0,0,0,0,0,0,0,0,0,0,0,0,0,0,0,0,0,0,0,0,0,0,0,0,0,0,0,0,0,0,0,0,2.4729,2.4729,0,2.4769,2.477,2.477,2.474,2.4739,2.4738,2.4736,2.4776,2.4779,2.4781,0,0,0,0,0,0,0,0,0,0,0,0,0,2.4623,2.4625,2.4729,2.4729,2.473,2.4769,2.477,2.477,2.474,2.4739,2.4737,2.4736,2.4776,2.4778,2.4781,0,0,0,0,0,0,0,0,0,0,0,0,0,2.4666,2.4625,2.4729,2.472,2.4719,2.4769,2.477,2.477,2.4741,2.4739,2.4737,2.4735,2.4775,2.4778,2.4781,2.4842,0,0,2.4792,2.4793,0,0,0,0,0,0,0,0,2.4664,2.467,2.4721,2.472,2.472,2.4748,2.4747,2.4794,2.4741,2.4733,2.4736,2.4734,2.4768,2.4772,2.4784,2.4844,2.4845,2.4792,2.4794,2.4796,2.4797,0,0,0,0,0,0,0,2.4661,2.4668,2.4745,2.4721,2.4721,2.4713,2.4717,2.4756,2.4761,2.4733,2.4731,2.4736,2.4768,2.4781,2.4785,2.4846,2.4792,2.4795,2.4797,2.4799,2.4954,2.4956,0,0,0,0,0,0,2.4659,2.4666,2.4743,2.4746,2.4687,2.4716,2.4721,2.4741,2.476,2.4762,2.4738,2.4735,2.4776,2.4781,2.4786,2.4856,2.4796,2.4799,2.4801,2.4952,2.4955,2.4957,0,0,0,0,0,0,2.4657,2.4666,2.4742,2.4706,2.4714,2.472,2.4743,2.4743,2.4756,2.4764,2.4765,2.4751,2.4775,2.4781,2.4828,2.4857,2.48,2.4804,2.495,2.4953,2.4956,2.4997,0,0,0,0,0,0,2.4654,2.4666,2.469,2.4706,2.4717,2.4784,2.4745,2.4745,2.4762,2.4758,2.4776,2.4777,2.4774,2.4823,2.4831,2.4861,2.4806,2.4947,2.4951,2.4955,2.4993,2.5002,2.5009,0,0,0,0,0,2.465,2.47,2.4691,2.4701,2.4747,2.4786,2.4791,2.4787,2.4764,2.4787,2.4793,2.4776,2.4853,2.4828,2.4837,2.4868,2.4945,2.495,2.4955,2.499,2.5,2.5008,0,0,0,0,0,0,2.4687,2.4702,2.4692,2.4749,2.4766,2.4781,2.481,2.4798,2.4821,2.4817,2.481,2.4814,2.4862,2.487,2.4842,2.4926,2.4895,2.4902,2.4919,2.4929,2.4936,2.4932,2.4809,0,0,0,0,0,2.4702,2.4733,2.4744,2.4793,2.4802,2.4805,2.4821,2.4816,2.4834,2.4841,2.4849,2.4866,2.4893,2.4912,2.4938,2.4995,2.4997,2.502,2.5028,2.5034,2.504,2.5068,2.5078,2.4972,2.4972,2.4972,0,0,2.4732,2.4744,2.4764,2.4801,2.4813,2.4844,2.4811,2.4846,2.4868,2.4846,2.4889,2.4896,2.4914,2.4966,2.4989,2.4974,2.5069,2.504,2.5045,2.5047,2.5073,2.5083,2.5092,2.4975,2.4975,2.4974,0,0,2.4803,2.4817,2.4857,2.487,2.489,2.4891,2.4901,2.4917,2.492,2.4964,2.4947,2.4973,2.5022,2.5034,2.5047,2.5121,2.5106,2.513,2.5169,2.5196,2.5204,2.5212,2.5236,2.5245,2.5135,2.5135,2.5135,0,2.4838,2.4885,2.488,2.4915,2.4931,2.4912,2.4952,2.4965,2.4992,2.5002,2.4985,2.5043,2.5054,2.5107,2.5125,2.5137,2.5146,2.5127,2.5204,2.5211,2.5218,2.524,2.525,2.5138,2.5138,2.5137,2.5137,0,2.4926,2.4959,2.499,2.5015,2.5034,2.5072,2.5071,2.5091,2.5084,2.5086,2.513,2.5142,2.5169,2.5181,2.5175,2.5233,2.5222,2.5205,2.5173,2.523,2.5251,2.526,2.5142,2.5141,2.514,2.5139,0,0,2.5022,2.5043,2.5054,2.5064,2.5084,2.5108,2.5144,2.5171,2.5186,2.5206,2.5234,2.5274,2.5257,2.5272,2.5267,2.5291,2.5346,2.527,2.527,2.5282,2.5407,2.5419,2.5429,2.5337,2.5338,2.534,2.5405,0,2.5092,2.5155,2.515,2.5209,2.5238,2.5219,2.525,2.5265,2.5267,2.5291,2.5294,2.5322,2.5299,2.5307,2.5331,2.5334,2.537,2.533,2.5361,2.5363,2.5356,2.5441,2.5454,2.5515,2.5413,2.5415,2.5416,0,2.5183,2.5204,2.5265,2.5278,2.529,2.5318,2.534,2.5364,2.5379,2.5379,2.5395,2.5385,2.5419,2.5388,2.5435,2.5407,2.5419,2.5423,2.5425,2.5427,2.5392,2.5443,2.5535,2.5543,2.5429,2.5428,2.5427,0,2.5243,2.5287,2.5329,2.5339,2.5355,2.5375,2.5383,2.5396,2.5411,2.5431,2.544,2.5464,2.5476,2.5494,2.549,2.5468,2.5536,2.5505,2.5536,2.5536,2.555,2.5549,2.5643,2.5561,2.5561,2.5561,2.5561,0,2.5321,2.5359,2.5356,2.5382,2.5423,2.5416,2.5457,2.5462,2.5474,2.5499,2.5485,2.5509,2.5503,2.5526,2.5523,2.556,2.5567,2.5567,2.5565,2.5567,2.5567,2.5574,2.5569,2.5564,2.5563,2.5563,2.5562,0,2.5395,2.5395,2.5439,2.545,2.5454,2.5484,2.5493,2.5516,2.5518,2.5549,2.5556,2.5558,2.5585,2.5583,2.5613,2.5611,2.5656,2.5651,2.5651,2.5649,2.5679,2.5675,2.578,2.5792,2.5704,2.5705,2.5706,0,2.5444,2.5472,2.5486,2.5502,2.5511,2.5537,2.5552,2.5547,2.5563,2.5581,2.5602,2.5627,2.5646,2.5689,2.5692,2.5715,2.5708,2.5743,2.5711,2.5711,2.5706,2.5704,2.5705,2.5749,2.575,2.5751,2.5752,0,2.553,2.5528,2.5551,2.5573,2.5591,2.5608,2.5624,2.5637,2.5633,2.5652,2.5678,2.5694,2.5723,2.5748,2.5768,2.5775,2.5762,2.5762,2.5769,2.5771,2.5769,2.5768,2.5666,2.5759,2.5758,2.5758,2.5757,2.5757,2.5591,2.5615,2.5628,2.5653,2.5664,2.5678,2.57,2.5703,2.5725,2.5749,2.5744,2.5774,2.5786,2.5812,2.5821,2.5843,2.583,2.5842,2.5845,2.5847,2.585,2.5767,2.5847,2.5847,2.5847,2.5847,2.5846,0,2.5674,2.5681,2.5705,2.5726,2.5745,2.5732,2.5748,2.5764,2.579,2.5803,2.5822,2.5852,2.5875,2.588,2.5901,2.5918,2.5912,2.5923,2.5921,2.5922,2.5861,2.5851,2.5927,2.5927,2.5927,2.5927,2.5927,2.5927,2.572,2.5758,2.5757,2.58,2.5806,2.5835,2.5845,2.5857,2.5867,2.59,2.5919,2.5922,2.5931,2.5953,2.5973,2.5974,2.5981,2.5995,2.5993,2.5935,2.5927,2.5919,2.591,2.5997,2.5997,2.6052,2.6052,2.6053]}]]